Key West NAF, FL

8:32 AM EST on November 19, 2017 (GMT -0500)
Key West Naval Air Station

Weather History for KNQX - July, 2013

Change the Weather History Date:

Wednesday, July 3, 2013

  Actual Average Record
Temperature  
Mean Temperature 82 °F -  
Max Temperature 86 °F 88 °F 93 °F (2007)
Min Temperature 77 °F 78 °F 72 °F (1958)
Cooling Degree Days 16    
Growing Degree Days 32 (Base 50)    
Moisture  
Dew Point 74 °F    
Average Humidity 80    
Maximum Humidity 88    
Minimum Humidity 70    
Precipitation  
Precipitation 0.08 in - - ()
Sea Level Pressure  
Sea Level Pressure 30.06 in    
Wind  
Wind Speed 10 mph (SE)    
Max Wind Speed 22 mph    
Max Gust Speed 32 mph    
Visibility 10 miles    
Events Rain , Thunderstorm    
Averages and records for this station are not official NWS values.
T = Trace of Precipitation, MM = Missing Value Source: NWS Daily Summary

Daily Weather History Graph

Daily Weather History Graph

Search for Another Location

Airport or City:

Trip Planner

Search our weather history database for the weather conditions in past years. The results will help you decide how hot, cold, wet, or windy it might be!

Date:

Astronomy

Jul. 03, 2013 Rise Set
Actual Time 6:42 AM EDT 8:19 PM EDT
Civil Twilight 6:16 AM EDT 8:45 PM EDT
Nautical Twilight 5:46 AM EDT 9:15 PM EDT
Astronomical Twilight 5:14 AM EDT 9:47 PM EDT
Moon 3:07 AM EDT (7/3) 4:38 PM EDT (7/3)
Length of Visible Light 14h 28m
Length of Day
13h 37m
Waning Crescent, 18% of the Moon is Illuminated
Jul 3
Waning Crescent
Jul 8
New
Jul 15
First Quarter
Jul 22
Full
Jul 29
Last Quarter

Hourly Weather History & Observations

Time (EDT) Temp. Heat Index Dew Point Humidity Pressure Visibility Wind Dir Wind Speed Gust Speed Precip Events Conditions
12:53 AM 78.1 °F - 73.9 °F 87% 30.06 in 10.0 mi East 9.2 mph - N/A   Clear
1:53 AM 79.0 °F - 75.0 °F 88% 30.04 in 10.0 mi ESE 9.2 mph - N/A   Clear
2:53 AM 80.1 °F 85.1 °F 75.0 °F 85% 30.04 in 10.0 mi SE 11.5 mph - N/A   Partly Cloudy
3:53 AM 79.0 °F - 73.9 °F 84% 30.03 in 10.0 mi SE 9.2 mph - N/A   Partly Cloudy
4:53 AM 81.0 °F 86.7 °F 75.0 °F 82% 30.03 in 10.0 mi SE 9.2 mph - N/A   Partly Cloudy
5:53 AM 80.1 °F 84.5 °F 73.9 °F 81% 30.02 in 10.0 mi SE 8.1 mph - N/A   Clear
5:55 AM 80.6 °F 85.4 °F 73.4 °F 79% 30.02 in 10.0 mi ESE 9.2 mph - N/A   Overcast
6:53 AM 80.1 °F 85.1 °F 75.0 °F 85% 30.03 in 10.0 mi ESE 6.9 mph - N/A   Mostly Cloudy
7:53 AM 81.0 °F 86.7 °F 75.0 °F 82% 30.05 in 10.0 mi ESE 9.2 mph - N/A   Mostly Cloudy
8:53 AM 82.9 °F 90.8 °F 75.9 °F 79% 30.06 in 10.0 mi ESE 6.9 mph - N/A   Mostly Cloudy
9:53 AM 84.9 °F 94.1 °F 75.9 °F 74% 30.06 in 10.0 mi SE 12.7 mph - N/A   Mostly Cloudy
10:32 AM 82.4 °F 89.5 °F 75.2 °F 79% 30.08 in 10.0 mi SSE 10.4 mph - 0.01 in   Mostly Cloudy
10:53 AM 84.0 °F 92.2 °F 75.2 °F 75% 30.08 in 10.0 mi SE 9.2 mph - 0.01 in   Mostly Cloudy
11:53 AM 84.0 °F 93.7 °F 77.0 °F 79% 30.09 in 10.0 mi SSE 10.4 mph - N/A   Overcast
12:53 PM 86.0 °F 96.0 °F 75.9 °F 72% 30.09 in 10.0 mi ESE 12.7 mph - N/A   Overcast
1:53 PM 84.9 °F 94.1 °F 75.9 °F 74% 30.07 in 10.0 mi SE 11.5 mph - N/A   Overcast
2:31 PM 82.4 °F 87.2 °F 71.6 °F 70% 30.06 in 9.0 mi SE 17.3 mph 25.3 mph 0.00 in Rain , Thunderstorm Light Thunderstorms and Rain
2:53 PM 81.0 °F 87.3 °F 75.9 °F 85% 30.05 in 10.0 mi SE 8.1 mph - 0.04 in   Mostly Cloudy
3:53 PM 82.9 °F 91.8 °F 77.0 °F 82% 30.04 in 10.0 mi SE 15.0 mph 21.9 mph N/A   Mostly Cloudy
4:53 PM 82.9 °F 90.8 °F 75.9 °F 79% 30.04 in 10.0 mi SE 17.3 mph - N/A   Overcast
5:12 PM 80.6 °F 85.4 °F 73.4 °F 79% 30.05 in 10.0 mi South 21.9 mph 32.2 mph 0.01 in Rain Light Rain
5:27 PM 77.0 °F - 71.6 °F 83% 30.06 in 10.0 mi South 15.0 mph 24.2 mph N/A   Overcast
5:53 PM 78.1 °F - 68.0 °F 71% 30.05 in 10.0 mi SSE 17.3 mph 25.3 mph N/A Rain Light Rain
6:37 PM 77.0 °F - 71.6 °F 83% 30.05 in 10.0 mi South 8.1 mph - 0.02 in   Mostly Cloudy
6:53 PM 78.1 °F - 71.1 °F 79% 30.04 in 10.0 mi SSW 8.1 mph - 0.02 in   Mostly Cloudy
7:53 PM 78.1 °F - 69.1 °F 74% 30.07 in 10.0 mi ESE 6.9 mph - 0.01 in   Overcast
8:53 PM 79.0 °F - 73.9 °F 84% 30.07 in 10.0 mi East 9.2 mph - N/A   Clear
9:53 PM 79.0 °F - 71.1 °F 77% 30.07 in 10.0 mi SE 8.1 mph - N/A   Clear
10:53 PM 81.0 °F 87.3 °F 75.9 °F 85% 30.08 in 9.0 mi East 8.1 mph - N/A   Clear
11:53 PM 80.1 °F 85.1 °F 75.0 °F 85% 30.08 in 9.0 mi East 10.4 mph - N/A   Clear